Hourly Data Report for September 30, 2017

All times are specified in Local Standard Time (LST). Add 1 hour to adjust for Daylight Saving Time where and when it is observed.

ALGONQUIN PARK EAST GATE
ONTARIO

45°32'00.000" N
78°16'00.000" W
397.00 m
6080192
71581
TNK

Download Data

Hourly Data (September 2017)
Hourly Data Report for September 30, 2017
Temp Definition
°C
Dew Point Temp Definition
°C
Rel Hum Definition
%
Wind Dir Definition
10's deg

Wind Spd Definition
km/h
Visibility Definition
km
Stn Press Definition
kPa
Hmdx Definition


Wind Chill Definition


Weather Definition


TIME
00:00 3.7 2.2 90 5 2   97.54     LegendNANA
01:00 2.8 1.7 92 0 1   97.59     LegendNANA
02:00 3.2 2.1 93 6 2   97.64     LegendNANA
03:00 2.1 1.1 93 0 1   97.66     LegendNANA
04:00 1.0 0.2 94   0   97.75     LegendNANA
05:00 0.4 -0.3 95   0   97.84     LegendNANA
06:00 -0.3 -0.9 95 0 1   97.93   -1 LegendNANA
07:00 0.3 -0.3 96 11 1   98.01     LegendNANA
08:00 4.7 3.7 93 2 5   98.06     LegendNANA
09:00 6.7 3.2 78 3 5   98.10     LegendNANA
10:00 7.9 1.0 62 5 6   98.15     LegendNANA
11:00 9.3 0.7 55 7 4   98.16     LegendNANA
12:00 9.9 0.0 50 4 3   98.15     LegendNANA
13:00 11.6 2.0 52 33 4   98.11     LegendNANA
14:00 11.5 1.4 50 28 5   98.08     LegendNANA
15:00 11.2 1.1 50 2 5   98.04     LegendNANA
16:00 10.8 1.8 54 33 3   98.01     LegendNANA
17:00 9.1 4.0 70 35 1   98.02     LegendNANA
18:00 6.0 2.9 81   0   98.04     LegendNANA
19:00 3.8 2.0 88   0   98.06     LegendNANA
20:00 2.3 1.0 91   0   98.09     LegendNANA
21:00 0.9 -0.3 92   0   98.12     LegendNANA
22:00 0.0 -1.0 93   0   98.12     LegendNANA
23:00 -0.9 -1.8 94   0   98.10     LegendNANA

Notes on Data Quality.

Legend

  • E = Estimated
  • M = Missing
  • NA = Not Available
  • ‡ = Partner data that is not subject to review by the National Climate Archives
Date modified: